カタログに戻る

COSMOS 1536

運用中軍事PO
NORAD 14699·PAYLOAD·🇷🇺 Russia

打ち上げ Feb 8, 1984 から Plesetsk Cosmodrome

Loading…

次のパス (今後24時間)

TLE

最新Source: Space-Track

元期: Sep 14, 2026, 12:02 UTC

1 14699U 84013A   26257.50152309  .00004201  00000-0  16225-3 0  9998
2 14699  82.5406 279.8340 0012981 345.4843  14.6021 15.25909873301390

AllMySatでCOSMOS 1536をリアルタイム追跡

Download on the App Store